Time,TemperatureF,DewpointF,PressureIn,WindDirection,WindDirectionDegrees,WindSpeedMPH,WindSpeedGustMPH,Humidity,HourlyPrecipIn,Conditions,Clouds,dailyrainin,SoftwareType,DateUTC
2013-07-30 00:01:00,72.5,72.0,30.09,WNW,292,4.0,7.0,98,0.00,,,0.00,Rainwise IP-100,2013-07-30 04:01:00,
2013-07-30 00:02:00,72.5,72.0,30.09,WNW,292,5.0,6.0,98,0.00,,,0.00,Rainwise IP-100,2013-07-30 04:02:00,
2013-07-30 00:07:00,72.5,72.0,30.09,WNW,292,5.0,7.0,97,0.00,,,0.00,Rainwise IP-100,2013-07-30 04:07:00,
2013-07-30 00:12:00,72.4,71.0,30.09,WNW,292,3.0,8.0,97,0.00,,,0.00,Rainwise IP-100,2013-07-30 04:12:00,
2013-07-30 00:17:00,72.3,71.0,30.09,WNW,292,4.0,7.0,97,0.00,,,0.00,Rainwise IP-100,2013-07-30 04:17:00,
2013-07-30 00:22:00,72.2,71.0,30.09,West,270,2.0,6.0,97,0.00,,,0.00,Rainwise IP-100,2013-07-30 04:22:00,
2013-07-30 00:27:00,72.1,71.0,30.09,WNW,292,3.0,6.0,97,0.00,,,0.00,Rainwise IP-100,2013-07-30 04:27:00,
2013-07-30 00:32:00,72.0,71.0,30.09,WNW,292,5.0,5.0,97,0.00,,,0.00,Rainwise IP-100,2013-07-30 04:32:00,
2013-07-30 00:37:00,71.9,71.0,30.09,West,270,5.0,7.0,97,0.00,,,0.00,Rainwise IP-100,2013-07-30 04:37:00,
2013-07-30 00:42:00,71.7,71.0,30.08,WNW,292,2.0,8.0,97,0.00,,,0.00,Rainwise IP-100,2013-07-30 04:42:00,
2013-07-30 00:47:00,71.6,71.0,30.08,WNW,292,4.0,5.0,97,0.00,,,0.00,Rainwise IP-100,2013-07-30 04:47:00,
2013-07-30 00:52:00,71.6,71.0,30.09,WNW,292,3.0,7.0,97,0.00,,,0.00,Rainwise IP-100,2013-07-30 04:52:00,
2013-07-30 00:57:00,71.5,71.0,30.08,WNW,292,4.0,5.0,97,0.00,,,0.00,Rainwise IP-100,2013-07-30 04:57:00,
2013-07-30 01:02:00,71.4,70.0,30.08,West,270,5.0,6.0,98,0.00,,,0.00,Rainwise IP-100,2013-07-30 05:02:00,
2013-07-30 01:07:00,71.3,70.0,30.07,WNW,292,5.0,6.0,98,0.00,,,0.00,Rainwise IP-100,2013-07-30 05:07:00,
2013-07-30 01:12:00,71.2,70.0,30.08,WNW,292,3.0,5.0,98,0.00,,,0.00,Rainwise IP-100,2013-07-30 05:12:00,
2013-07-30 01:17:00,71.1,70.0,30.07,WNW,292,3.0,7.0,98,0.00,,,0.00,Rainwise IP-100,2013-07-30 05:17:00,
2013-07-30 01:22:00,71.0,70.0,30.08,WNW,292,3.0,5.0,98,0.00,,,0.00,Rainwise IP-100,2013-07-30 05:22:00,
2013-07-30 01:27:00,70.9,70.0,30.08,WNW,292,3.0,5.0,98,0.00,,,0.00,Rainwise IP-100,2013-07-30 05:27:00,
2013-07-30 01:32:00,70.8,70.0,30.08,WNW,292,3.0,4.0,99,0.00,,,0.00,Rainwise IP-100,2013-07-30 05:32:00,
2013-07-30 01:37:00,70.7,70.0,30.08,WNW,292,2.0,4.0,99,0.00,,,0.00,Rainwise IP-100,2013-07-30 05:37:00,
2013-07-30 01:42:00,70.6,70.0,30.08,WNW,292,3.0,5.0,99,0.00,,,0.00,Rainwise IP-100,2013-07-30 05:42:00,
2013-07-30 01:47:00,70.6,70.0,30.08,WNW,292,4.0,6.0,99,0.00,,,0.00,Rainwise IP-100,2013-07-30 05:47:00,
2013-07-30 01:52:00,70.5,70.0,30.08,WNW,292,3.0,4.0,99,0.00,,,0.00,Rainwise IP-100,2013-07-30 05:52:00,
2013-07-30 01:57:00,70.4,70.0,30.08,WNW,292,2.0,3.0,99,0.00,,,0.00,Rainwise IP-100,2013-07-30 05:57:00,
2013-07-30 02:02:00,70.3,70.0,30.09,WNW,292,2.0,4.0,100,0.00,,,0.00,Rainwise IP-100,2013-07-30 06:02:00,
2013-07-30 02:07:00,70.3,70.0,30.08,WNW,292,3.0,4.0,100,0.00,,,0.00,Rainwise IP-100,2013-07-30 06:07:00,
2013-07-30 02:12:00,70.3,70.0,30.08,WNW,292,1.0,4.0,100,0.00,,,0.00,Rainwise IP-100,2013-07-30 06:12:00,
2013-07-30 02:17:00,70.4,70.0,30.08,WNW,292,3.0,3.0,100,0.00,,,0.00,Rainwise IP-100,2013-07-30 06:17:00,
2013-07-30 02:22:00,70.4,70.0,30.09,WNW,292,3.0,4.0,100,0.00,,,0.00,Rainwise IP-100,2013-07-30 06:22:00,
2013-07-30 02:27:00,70.5,70.0,30.09,WNW,292,2.0,5.0,100,0.00,,,0.00,Rainwise IP-100,2013-07-30 06:27:00,
2013-07-30 02:32:00,70.5,70.0,30.08,WNW,292,3.0,4.0,100,0.00,,,0.00,Rainwise IP-100,2013-07-30 06:32:00,
2013-07-30 02:37:00,70.5,70.0,30.08,WNW,292,3.0,4.0,100,0.00,,,0.00,Rainwise IP-100,2013-07-30 06:37:00,
2013-07-30 02:42:00,70.5,70.0,30.08,WNW,292,3.0,4.0,100,0.00,,,0.00,Rainwise IP-100,2013-07-30 06:42:00,
2013-07-30 02:47:00,70.4,70.0,30.08,WNW,292,4.0,5.0,100,0.00,,,0.00,Rainwise IP-100,2013-07-30 06:47:00,
2013-07-30 02:52:00,70.4,70.0,30.08,WNW,292,4.0,5.0,100,0.00,,,0.00,Rainwise IP-100,2013-07-30 06:52:00,
2013-07-30 02:57:00,70.4,70.0,30.08,WNW,292,3.0,4.0,100,0.00,,,0.00,Rainwise IP-100,2013-07-30 06:57:00,
2013-07-30 03:02:00,70.3,70.0,30.08,WNW,292,1.0,6.0,100,0.00,,,0.00,Rainwise IP-100,2013-07-30 07:02:00,
2013-07-30 03:07:00,70.2,70.0,30.08,WNW,292,3.0,4.0,100,0.00,,,0.00,Rainwise IP-100,2013-07-30 07:07:00,
2013-07-30 03:12:00,70.2,70.0,30.08,WNW,292,5.0,5.0,100,0.00,,,0.00,Rainwise IP-100,2013-07-30 07:12:00,
2013-07-30 03:17:00,70.1,70.0,30.07,WNW,292,4.0,5.0,100,0.00,,,0.00,Rainwise IP-100,2013-07-30 07:17:00,
2013-07-30 03:22:00,69.9,70.0,30.07,WNW,292,5.0,6.0,100,0.00,,,0.00,Rainwise IP-100,2013-07-30 07:22:00,
2013-07-30 03:27:00,69.8,69.0,30.08,WNW,292,5.0,6.0,100,0.00,,,0.00,Rainwise IP-100,2013-07-30 07:27:00,
2013-07-30 03:32:00,69.8,69.0,30.07,WNW,292,7.0,7.0,100,0.00,,,0.00,Rainwise IP-100,2013-07-30 07:32:00,
2013-07-30 03:37:00,69.7,69.0,30.07,WNW,292,5.0,8.0,100,0.00,,,0.00,Rainwise IP-100,2013-07-30 07:37:00,
2013-07-30 03:42:00,69.6,69.0,30.07,WNW,292,7.0,7.0,100,0.00,,,0.00,Rainwise IP-100,2013-07-30 07:42:00,
2013-07-30 03:47:00,69.5,69.0,30.07,WNW,292,3.0,0.0,100,0.00,,,0.00,Rainwise IP-100,2013-07-30 07:47:00,
2013-07-30 03:52:00,69.3,69.0,30.07,WNW,292,4.0,7.0,100,0.00,,,0.00,Rainwise IP-100,2013-07-30 07:52:00,
2013-07-30 03:57:00,69.2,69.0,30.07,WNW,292,6.0,9.0,100,0.00,,,0.00,Rainwise IP-100,2013-07-30 07:57:00,
2013-07-30 04:02:00,69.1,69.0,30.07,NW,315,4.0,7.0,100,0.00,,,0.00,Rainwise IP-100,2013-07-30 08:02:00,
2013-07-30 04:07:00,69.0,69.0,30.07,WNW,292,5.0,5.0,100,0.00,,,0.00,Rainwise IP-100,2013-07-30 08:07:00,
2013-07-30 04:12:00,69.0,68.0,30.07,NNW,337,4.0,7.0,99,0.00,,,0.00,Rainwise IP-100,2013-07-30 08:12:00,
2013-07-30 04:17:00,69.0,68.0,30.07,WNW,292,5.0,8.0,99,0.00,,,0.00,Rainwise IP-100,2013-07-30 08:17:00,
2013-07-30 04:22:00,69.0,68.0,30.08,WNW,292,5.0,9.0,99,0.00,,,0.00,Rainwise IP-100,2013-07-30 08:22:00,
2013-07-30 04:27:00,68.9,68.0,30.07,WNW,292,4.0,7.0,99,0.00,,,0.00,Rainwise IP-100,2013-07-30 08:27:00,
2013-07-30 04:32:00,68.9,68.0,30.08,NNW,337,5.0,9.0,99,0.00,,,0.00,Rainwise IP-100,2013-07-30 08:32:00,
2013-07-30 04:37:00,68.9,68.0,30.08,WNW,292,2.0,7.0,99,0.00,,,0.00,Rainwise IP-100,2013-07-30 08:37:00,
2013-07-30 04:42:00,68.8,68.0,30.08,WNW,292,3.0,5.0,99,0.00,,,0.00,Rainwise IP-100,2013-07-30 08:42:00,
2013-07-30 04:47:00,68.6,68.0,30.08,NW,315,3.0,4.0,99,0.00,,,0.00,Rainwise IP-100,2013-07-30 08:47:00,
2013-07-30 04:52:00,68.6,68.0,30.08,WNW,292,5.0,5.0,99,0.00,,,0.00,Rainwise IP-100,2013-07-30 08:52:00,
2013-07-30 04:57:00,68.6,68.0,30.08,WNW,292,4.0,7.0,99,0.00,,,0.00,Rainwise IP-100,2013-07-30 08:57:00,
2013-07-30 05:02:00,68.5,68.0,30.08,WNW,292,4.0,7.0,99,0.00,,,0.00,Rainwise IP-100,2013-07-30 09:02:00,
2013-07-30 05:07:00,68.4,68.0,30.09,WNW,292,3.0,5.0,99,0.00,,,0.00,Rainwise IP-100,2013-07-30 09:07:00,
2013-07-30 05:12:00,68.4,68.0,30.09,WNW,292,6.0,7.0,99,0.00,,,0.00,Rainwise IP-100,2013-07-30 09:12:00,
2013-07-30 05:17:00,68.4,68.0,30.09,NW,315,6.0,7.0,99,0.00,,,0.00,Rainwise IP-100,2013-07-30 09:17:00,
2013-07-30 05:22:00,68.4,68.0,30.09,WNW,292,3.0,9.0,99,0.00,,,0.00,Rainwise IP-100,2013-07-30 09:22:00,
2013-07-30 05:27:00,68.4,68.0,30.09,WNW,292,3.0,7.0,98,0.00,,,0.00,Rainwise IP-100,2013-07-30 09:27:00,
2013-07-30 05:32:00,68.3,67.0,30.09,WNW,292,2.0,6.0,98,0.00,,,0.00,Rainwise IP-100,2013-07-30 09:32:00,
2013-07-30 05:37:00,68.2,67.0,30.09,NNW,337,3.0,7.0,98,0.00,,,0.00,Rainwise IP-100,2013-07-30 09:37:00,
2013-07-30 05:42:00,68.0,67.0,30.10,WNW,292,3.0,5.0,98,0.00,,,0.00,Rainwise IP-100,2013-07-30 09:42:00,
2013-07-30 05:47:00,67.9,67.0,30.09,NNW,337,4.0,4.0,98,0.00,,,0.00,Rainwise IP-100,2013-07-30 09:47:00,
2013-07-30 05:52:00,67.9,67.0,30.10,WNW,292,2.0,5.0,99,0.00,,,0.00,Rainwise IP-100,2013-07-30 09:52:00,
2013-07-30 05:57:00,67.7,67.0,30.10,NNW,337,4.0,5.0,99,0.00,,,0.00,Rainwise IP-100,2013-07-30 09:57:00,
2013-07-30 06:02:00,67.6,67.0,30.10,NW,315,5.0,5.0,99,0.00,,,0.00,Rainwise IP-100,2013-07-30 10:02:00,
2013-07-30 06:07:00,67.5,67.0,30.11,WNW,292,2.0,5.0,99,0.00,,,0.00,Rainwise IP-100,2013-07-30 10:07:00,
2013-07-30 06:12:00,67.4,67.0,30.11,NNW,337,4.0,7.0,99,0.00,,,0.00,Rainwise IP-100,2013-07-30 10:12:00,
2013-07-30 06:17:00,67.3,66.0,30.10,WNW,292,4.0,6.0,99,0.00,,,0.00,Rainwise IP-100,2013-07-30 10:17:00,
2013-07-30 06:22:00,67.2,66.0,30.11,WNW,292,5.0,7.0,99,0.00,,,0.00,Rainwise IP-100,2013-07-30 10:22:00,
2013-07-30 06:27:00,67.1,66.0,30.11,North,360,4.0,7.0,99,0.00,,,0.00,Rainwise IP-100,2013-07-30 10:27:00,
2013-07-30 06:32:00,67.1,66.0,30.11,WNW,292,5.0,7.0,99,0.00,,,0.00,Rainwise IP-100,2013-07-30 10:32:00,
2013-07-30 06:37:00,67.0,66.0,30.10,WNW,292,3.0,5.0,99,0.00,,,0.00,Rainwise IP-100,2013-07-30 10:37:00,
2013-07-30 06:42:00,67.0,66.0,30.11,WNW,292,3.0,7.0,99,0.00,,,0.00,Rainwise IP-100,2013-07-30 10:42:00,
2013-07-30 06:47:00,66.9,66.0,30.11,NW,315,4.0,5.0,99,0.00,,,0.00,Rainwise IP-100,2013-07-30 10:47:00,
2013-07-30 06:52:00,66.9,66.0,30.10,NW,315,5.0,7.0,99,0.00,,,0.00,Rainwise IP-100,2013-07-30 10:52:00,
2013-07-30 06:57:00,66.8,66.0,30.11,WNW,292,6.0,7.0,99,0.00,,,0.00,Rainwise IP-100,2013-07-30 10:57:00,
2013-07-30 07:02:00,66.9,66.0,30.11,NW,315,6.0,8.0,99,0.00,,,0.00,Rainwise IP-100,2013-07-30 11:02:00,
2013-07-30 07:07:00,66.9,66.0,30.11,WNW,292,4.0,7.0,98,0.00,,,0.00,Rainwise IP-100,2013-07-30 11:07:00,
2013-07-30 07:12:00,66.9,66.0,30.11,WNW,292,8.0,8.0,98,0.00,,,0.00,Rainwise IP-100,2013-07-30 11:12:00,
2013-07-30 07:17:00,66.8,66.0,30.11,NNW,337,5.0,9.0,98,0.00,,,0.00,Rainwise IP-100,2013-07-30 11:17:00,
2013-07-30 07:22:00,66.9,66.0,30.11,WNW,292,5.0,7.0,97,0.00,,,0.00,Rainwise IP-100,2013-07-30 11:22:00,
2013-07-30 07:27:00,66.9,66.0,30.12,WNW,292,3.0,7.0,97,0.00,,,0.00,Rainwise IP-100,2013-07-30 11:27:00,
2013-07-30 07:32:00,66.9,66.0,30.12,WNW,292,5.0,6.0,97,0.00,,,0.00,Rainwise IP-100,2013-07-30 11:32:00,
2013-07-30 07:37:00,66.9,66.0,30.12,WNW,292,6.0,9.0,96,0.00,,,0.00,Rainwise IP-100,2013-07-30 11:37:00,
2013-07-30 07:42:00,67.0,66.0,30.12,WNW,292,5.0,5.0,95,0.00,,,0.00,Rainwise IP-100,2013-07-30 11:42:00,
2013-07-30 07:47:00,67.2,65.0,30.12,WNW,292,4.0,8.0,94,0.00,,,0.00,Rainwise IP-100,2013-07-30 11:47:00,
2013-07-30 07:52:00,67.2,65.0,30.12,NW,315,5.0,8.0,93,0.00,,,0.00,Rainwise IP-100,2013-07-30 11:52:00,
2013-07-30 07:57:00,67.2,65.0,30.12,WNW,292,3.0,0.0,93,0.00,,,0.00,Rainwise IP-100,2013-07-30 11:57:00,
2013-07-30 08:02:00,67.5,65.0,30.12,WNW,292,5.0,8.0,92,0.00,,,0.00,Rainwise IP-100,2013-07-30 12:02:00,
2013-07-30 08:07:00,67.9,65.0,30.12,WNW,292,0.0,9.0,90,0.00,,,0.00,Rainwise IP-100,2013-07-30 12:07:00,
2013-07-30 08:12:00,68.3,64.0,30.12,WNW,292,0.0,2.0,89,0.00,,,0.00,Rainwise IP-100,2013-07-30 12:12:00,
2013-07-30 08:17:00,68.7,64.0,30.12,WNW,292,2.0,4.0,87,0.00,,,0.00,Rainwise IP-100,2013-07-30 12:17:00,
2013-07-30 08:22:00,69.2,64.0,30.12,WNW,292,4.0,4.0,85,0.00,,,0.00,Rainwise IP-100,2013-07-30 12:22:00,
2013-07-30 08:27:00,69.7,64.0,30.13,WNW,292,7.0,0.0,84,0.00,,,0.00,Rainwise IP-100,2013-07-30 12:27:00,
2013-07-30 08:32:00,70.1,64.0,30.13,WNW,292,9.0,9.0,82,0.00,,,0.00,Rainwise IP-100,2013-07-30 12:32:00,
2013-07-30 08:37:00,70.4,64.0,30.12,WNW,292,0.0,2.0,80,0.00,,,0.00,Rainwise IP-100,2013-07-30 12:37:00,
2013-07-30 08:42:00,70.5,63.0,30.12,WNW,292,0.0,2.0,79,0.00,,,0.00,Rainwise IP-100,2013-07-30 12:42:00,
2013-07-30 08:47:00,70.8,63.0,30.13,WNW,292,4.0,0.0,78,0.00,,,0.00,Rainwise IP-100,2013-07-30 12:47:00,
2013-07-30 08:52:00,71.2,64.0,30.12,WNW,292,0.0,0.0,78,0.00,,,0.00,Rainwise IP-100,2013-07-30 12:52:00,
2013-07-30 08:57:00,71.5,64.0,30.13,NNW,337,4.0,4.0,77,0.00,,,0.00,Rainwise IP-100,2013-07-30 12:57:00,
2013-07-30 09:02:00,71.7,63.0,30.12,NW,315,8.0,8.0,75,0.00,,,0.00,Rainwise IP-100,2013-07-30 13:02:00,
2013-07-30 09:07:00,71.9,63.0,30.12,WNW,292,6.0,6.0,74,0.00,,,0.00,Rainwise IP-100,2013-07-30 13:07:00,
2013-07-30 09:12:00,72.3,63.0,30.12,WNW,292,2.0,4.0,74,0.00,,,0.00,Rainwise IP-100,2013-07-30 13:12:00,
2013-07-30 09:17:00,72.5,63.0,30.12,NW,315,8.0,8.0,73,0.00,,,0.00,Rainwise IP-100,2013-07-30 13:17:00,
2013-07-30 09:22:00,72.6,63.0,30.12,NNW,337,4.0,4.0,73,0.00,,,0.00,Rainwise IP-100,2013-07-30 13:22:00,
2013-07-30 09:27:00,72.8,63.0,30.13,NW,315,5.0,5.0,72,0.00,,,0.00,Rainwise IP-100,2013-07-30 13:27:00,
2013-07-30 09:32:00,72.9,63.0,30.12,NW,315,0.0,1.0,71,0.00,,,0.00,Rainwise IP-100,2013-07-30 13:32:00,
2013-07-30 09:37:00,73.1,63.0,30.13,WNW,292,8.0,8.0,71,0.00,,,0.00,Rainwise IP-100,2013-07-30 13:37:00,
2013-07-30 09:42:00,73.4,63.0,30.13,NNW,337,8.0,8.0,70,0.00,,,0.00,Rainwise IP-100,2013-07-30 13:42:00,
2013-07-30 09:47:00,73.7,63.0,30.13,NNW,337,3.0,0.0,70,0.00,,,0.00,Rainwise IP-100,2013-07-30 13:47:00,
2013-07-30 09:52:00,74.0,63.0,30.13,NNE,22,3.0,3.0,69,0.00,,,0.00,Rainwise IP-100,2013-07-30 13:52:00,
2013-07-30 09:57:00,74.2,63.0,30.13,NNW,337,5.0,8.0,69,0.00,,,0.00,Rainwise IP-100,2013-07-30 13:57:00,
2013-07-30 10:02:00,74.2,63.0,30.13,WNW,292,6.0,8.0,69,0.00,,,0.00,Rainwise IP-100,2013-07-30 14:02:00,
2013-07-30 10:07:00,74.4,63.0,30.13,NW,315,6.0,9.0,68,0.00,,,0.00,Rainwise IP-100,2013-07-30 14:07:00,
2013-07-30 10:12:00,74.6,63.0,30.13,WNW,292,6.0,9.0,68,0.00,,,0.00,Rainwise IP-100,2013-07-30 14:12:00,
2013-07-30 10:17:00,74.6,63.0,30.13,WNW,292,7.0,9.0,68,0.00,,,0.00,Rainwise IP-100,2013-07-30 14:17:00,
2013-07-30 10:22:00,74.9,63.0,30.13,NNW,337,4.0,0.0,67,0.00,,,0.00,Rainwise IP-100,2013-07-30 14:22:00,
2013-07-30 10:27:00,75.3,63.0,30.13,NW,315,5.0,9.0,66,0.00,,,0.00,Rainwise IP-100,2013-07-30 14:27:00,
2013-07-30 10:32:00,75.3,63.0,30.13,NNW,337,5.0,9.0,66,0.00,,,0.00,Rainwise IP-100,2013-07-30 14:32:00,
2013-07-30 10:37:00,75.5,63.0,30.13,NNW,337,0.0,9.0,66,0.00,,,0.00,Rainwise IP-100,2013-07-30 14:37:00,
2013-07-30 10:42:00,75.8,63.0,30.14,WNW,292,3.0,0.0,65,0.00,,,0.00,Rainwise IP-100,2013-07-30 14:42:00,
2013-07-30 10:47:00,76.1,63.0,30.14,NW,315,2.0,5.0,65,0.00,,,0.00,Rainwise IP-100,2013-07-30 14:47:00,
2013-07-30 10:52:00,76.6,63.0,30.13,NNW,337,0.0,5.0,63,0.00,,,0.00,Rainwise IP-100,2013-07-30 14:52:00,
2013-07-30 10:57:00,76.9,62.0,30.14,NNW,337,8.0,8.0,61,0.00,,,0.00,Rainwise IP-100,2013-07-30 14:57:00,
2013-07-30 11:02:00,76.8,62.0,30.13,WNW,292,0.0,8.0,61,0.00,,,0.00,Rainwise IP-100,2013-07-30 15:02:00,
2013-07-30 11:07:00,76.9,62.0,30.13,NW,315,3.0,5.0,60,0.00,,,0.00,Rainwise IP-100,2013-07-30 15:07:00,
2013-07-30 11:12:00,77.2,62.0,30.13,WNW,292,0.0,4.0,59,0.00,,,0.00,Rainwise IP-100,2013-07-30 15:12:00,
2013-07-30 11:17:00,77.3,62.0,30.14,WSW,247,3.0,7.0,59,0.00,,,0.00,Rainwise IP-100,2013-07-30 15:17:00,
2013-07-30 11:22:00,77.4,61.0,30.13,WNW,292,3.0,5.0,58,0.00,,,0.00,Rainwise IP-100,2013-07-30 15:22:00,
2013-07-30 11:27:00,77.3,61.0,30.13,West,270,3.0,7.0,57,0.00,,,0.00,Rainwise IP-100,2013-07-30 15:27:00,
2013-07-30 11:32:00,77.1,61.0,30.13,WNW,292,2.0,6.0,57,0.00,,,0.00,Rainwise IP-100,2013-07-30 15:32:00,
2013-07-30 11:37:00,77.7,61.0,30.13,WNW,292,3.0,7.0,57,0.00,,,0.00,Rainwise IP-100,2013-07-30 15:37:00,
2013-07-30 11:42:00,78.0,61.0,30.13,WNW,292,7.0,7.0,56,0.00,,,0.00,Rainwise IP-100,2013-07-30 15:42:00,
2013-07-30 11:47:00,78.0,61.0,30.13,WNW,292,0.0,9.0,56,0.00,,,0.00,Rainwise IP-100,2013-07-30 15:47:00,
2013-07-30 11:52:00,78.1,60.0,30.13,NNW,337,3.0,5.0,55,0.00,,,0.00,Rainwise IP-100,2013-07-30 15:52:00,
2013-07-30 11:57:00,78.2,61.0,30.13,NNW,337,7.0,7.0,55,0.00,,,0.00,Rainwise IP-100,2013-07-30 15:57:00,
2013-07-30 12:02:00,78.2,61.0,30.12,NNW,337,2.0,6.0,55,0.00,,,0.00,Rainwise IP-100,2013-07-30 16:02:00,
2013-07-30 12:07:00,78.5,61.0,30.12,West,270,4.0,4.0,55,0.00,,,0.00,Rainwise IP-100,2013-07-30 16:07:00,
2013-07-30 12:12:00,78.7,60.0,30.12,WNW,292,6.0,8.0,53,0.00,,,0.00,Rainwise IP-100,2013-07-30 16:12:00,
2013-07-30 12:17:00,78.3,59.0,30.12,WNW,292,5.0,7.0,52,0.00,,,0.00,Rainwise IP-100,2013-07-30 16:17:00,
2013-07-30 12:22:00,78.0,59.0,30.12,WNW,292,7.0,7.0,52,0.00,,,0.00,Rainwise IP-100,2013-07-30 16:22:00,
2013-07-30 12:27:00,77.7,59.0,30.12,WNW,292,4.0,8.0,53,0.00,,,0.00,Rainwise IP-100,2013-07-30 16:27:00,
2013-07-30 12:32:00,77.9,59.0,30.11,WNW,292,6.0,0.0,52,0.00,,,0.00,Rainwise IP-100,2013-07-30 16:32:00,
2013-07-30 12:37:00,78.6,60.0,30.11,WNW,292,7.0,7.0,54,0.00,,,0.00,Rainwise IP-100,2013-07-30 16:37:00,
2013-07-30 12:42:00,78.8,60.0,30.11,WNW,292,8.0,0.0,54,0.00,,,0.00,Rainwise IP-100,2013-07-30 16:42:00,
2013-07-30 12:47:00,78.4,59.0,30.11,WNW,292,6.0,6.0,52,0.00,,,0.00,Rainwise IP-100,2013-07-30 16:47:00,
2013-07-30 12:52:00,78.2,59.0,30.12,WNW,292,5.0,5.0,51,0.00,,,0.00,Rainwise IP-100,2013-07-30 16:52:00,
2013-07-30 12:57:00,78.3,59.0,30.12,WNW,292,6.0,0.0,52,0.00,,,0.00,Rainwise IP-100,2013-07-30 16:57:00,
2013-07-30 13:02:00,78.1,61.0,30.11,WNW,292,1.0,2.0,57,0.00,,,0.00,Rainwise IP-100,2013-07-30 17:02:00,
2013-07-30 13:07:00,78.1,63.0,30.11,WNW,292,7.0,7.0,60,0.00,,,0.00,Rainwise IP-100,2013-07-30 17:07:00,
2013-07-30 13:12:00,78.0,63.0,30.11,WNW,292,3.0,0.0,61,0.00,,,0.00,Rainwise IP-100,2013-07-30 17:12:00,
2013-07-30 13:17:00,77.5,63.0,30.11,WNW,292,4.0,9.0,61,0.00,,,0.00,Rainwise IP-100,2013-07-30 17:17:00,
2013-07-30 13:22:00,77.2,63.0,30.11,WNW,292,4.0,9.0,61,0.00,,,0.00,Rainwise IP-100,2013-07-30 17:22:00,
2013-07-30 13:27:00,77.4,63.0,30.11,WSW,247,4.0,4.0,61,0.00,,,0.00,Rainwise IP-100,2013-07-30 17:27:00,
2013-07-30 13:32:00,77.7,63.0,30.11,WNW,292,9.0,9.0,61,0.00,,,0.00,Rainwise IP-100,2013-07-30 17:32:00,
2013-07-30 13:37:00,77.7,63.0,30.11,SW,225,6.0,6.0,61,0.00,,,0.00,Rainwise IP-100,2013-07-30 17:37:00,
2013-07-30 13:42:00,78.0,63.0,30.11,WSW,247,6.0,6.0,61,0.00,,,0.00,Rainwise IP-100,2013-07-30 17:42:00,
2013-07-30 13:47:00,78.3,64.0,30.10,WNW,292,7.0,0.0,61,0.00,,,0.00,Rainwise IP-100,2013-07-30 17:47:00,
2013-07-30 13:52:00,78.0,63.0,30.10,WNW,292,2.0,2.0,61,0.00,,,0.00,Rainwise IP-100,2013-07-30 17:52:00,
2013-07-30 13:57:00,78.4,64.0,30.10,WNW,292,7.0,9.0,61,0.00,,,0.00,Rainwise IP-100,2013-07-30 17:57:00,
2013-07-30 14:02:00,78.9,64.0,30.10,WNW,292,9.0,0.0,60,0.00,,,0.00,Rainwise IP-100,2013-07-30 18:02:00,
2013-07-30 14:07:00,78.7,63.0,30.10,WNW,292,0.0,2.0,60,0.00,,,0.00,Rainwise IP-100,2013-07-30 18:07:00,
2013-07-30 14:12:00,78.6,63.0,30.10,NW,315,2.0,2.0,60,0.00,,,0.00,Rainwise IP-100,2013-07-30 18:12:00,
2013-07-30 14:17:00,79.1,64.0,30.10,WNW,292,7.0,7.0,60,0.00,,,0.00,Rainwise IP-100,2013-07-30 18:17:00,
2013-07-30 14:22:00,78.9,64.0,30.10,NW,315,7.0,7.0,60,0.00,,,0.00,Rainwise IP-100,2013-07-30 18:22:00,
2013-07-30 14:27:00,77.7,63.0,30.11,NW,315,3.0,0.0,61,0.00,,,0.00,Rainwise IP-100,2013-07-30 18:27:00,
2013-07-30 14:32:00,78.0,63.0,30.10,WNW,292,5.0,6.0,60,0.00,,,0.00,Rainwise IP-100,2013-07-30 18:32:00,
2013-07-30 14:37:00,78.6,63.0,30.10,NNW,337,4.0,4.0,59,0.00,,,0.00,Rainwise IP-100,2013-07-30 18:37:00,
2013-07-30 14:42:00,78.7,63.0,30.10,SSW,202,5.0,9.0,59,0.00,,,0.00,Rainwise IP-100,2013-07-30 18:42:00,
2013-07-30 14:47:00,79.3,64.0,30.10,West,270,3.0,8.0,60,0.00,,,0.00,Rainwise IP-100,2013-07-30 18:47:00,
2013-07-30 14:52:00,79.7,64.0,30.10,WNW,292,3.0,0.0,60,0.00,,,0.00,Rainwise IP-100,2013-07-30 18:52:00,
2013-07-30 14:57:00,79.5,64.0,30.10,ENE,67,0.0,1.0,60,0.00,,,0.00,Rainwise IP-100,2013-07-30 18:57:00,
2013-07-30 15:02:00,79.5,64.0,30.10,WNW,292,8.0,0.0,60,0.00,,,0.00,Rainwise IP-100,2013-07-30 19:02:00,
2013-07-30 15:07:00,79.2,64.0,30.10,WNW,292,1.0,1.0,59,0.00,,,0.00,Rainwise IP-100,2013-07-30 19:07:00,
2013-07-30 15:12:00,78.8,63.0,30.10,WNW,292,3.0,9.0,59,0.00,,,0.00,Rainwise IP-100,2013-07-30 19:12:00,
2013-07-30 15:17:00,79.3,64.0,30.10,WSW,247,9.0,0.0,59,0.00,,,0.00,Rainwise IP-100,2013-07-30 19:17:00,
2013-07-30 15:22:00,79.3,63.0,30.10,WSW,247,4.0,4.0,58,0.00,,,0.00,Rainwise IP-100,2013-07-30 19:22:00,
2013-07-30 15:27:00,78.6,62.0,30.10,SSW,202,4.0,4.0,58,0.00,,,0.00,Rainwise IP-100,2013-07-30 19:27:00,
2013-07-30 15:32:00,78.1,62.0,30.10,NW,315,9.0,9.0,58,0.00,,,0.00,Rainwise IP-100,2013-07-30 19:32:00,
2013-07-30 15:37:00,77.6,62.0,30.10,WSW,247,4.0,4.0,58,0.00,,,0.00,Rainwise IP-100,2013-07-30 19:37:00,
2013-07-30 15:42:00,77.2,62.0,30.10,West,270,4.0,4.0,59,0.00,,,0.00,Rainwise IP-100,2013-07-30 19:42:00,
2013-07-30 15:47:00,77.7,63.0,30.10,West,270,3.0,8.0,61,0.00,,,0.00,Rainwise IP-100,2013-07-30 19:47:00,
2013-07-30 15:52:00,77.9,63.0,30.09,West,270,6.0,6.0,61,0.00,,,0.00,Rainwise IP-100,2013-07-30 19:52:00,
2013-07-30 15:57:00,77.8,62.0,30.10,WNW,292,2.0,2.0,59,0.00,,,0.00,Rainwise IP-100,2013-07-30 19:57:00,
2013-07-30 16:02:00,78.0,62.0,30.10,ENE,67,0.0,9.0,59,0.00,,,0.00,Rainwise IP-100,2013-07-30 20:02:00,
2013-07-30 16:07:00,78.0,62.0,30.09,WNW,292,4.0,9.0,59,0.00,,,0.00,Rainwise IP-100,2013-07-30 20:07:00,
2013-07-30 16:12:00,77.6,62.0,30.10,WNW,292,5.0,5.0,59,0.00,,,0.00,Rainwise IP-100,2013-07-30 20:12:00,
2013-07-30 16:17:00,77.2,62.0,30.10,SSW,202,2.0,7.0,60,0.00,,,0.00,Rainwise IP-100,2013-07-30 20:17:00,
2013-07-30 16:22:00,76.8,63.0,30.09,WNW,292,7.0,7.0,62,0.00,,,0.00,Rainwise IP-100,2013-07-30 20:22:00,
2013-07-30 16:27:00,76.9,63.0,30.09,WSW,247,6.0,8.0,63,0.00,,,0.00,Rainwise IP-100,2013-07-30 20:27:00,
2013-07-30 16:32:00,77.5,64.0,30.09,West,270,1.0,9.0,64,0.00,,,0.00,Rainwise IP-100,2013-07-30 20:32:00,
2013-07-30 16:37:00,77.8,64.0,30.09,WSW,247,5.0,7.0,64,0.00,,,0.00,Rainwise IP-100,2013-07-30 20:37:00,
2013-07-30 16:42:00,77.8,65.0,30.09,WNW,292,7.0,7.0,65,0.00,,,0.00,Rainwise IP-100,2013-07-30 20:42:00,
2013-07-30 16:47:00,77.5,65.0,30.09,WNW,292,5.0,8.0,66,0.00,,,0.00,Rainwise IP-100,2013-07-30 20:47:00,
2013-07-30 16:52:00,77.7,66.0,30.09,WNW,292,4.0,7.0,67,0.00,,,0.00,Rainwise IP-100,2013-07-30 20:52:00,
2013-07-30 16:57:00,77.6,66.0,30.09,WNW,292,3.0,7.0,67,0.00,,,0.00,Rainwise IP-100,2013-07-30 20:57:00,
2013-07-30 17:02:00,77.4,66.0,30.09,SSW,202,0.0,7.0,68,0.00,,,0.00,Rainwise IP-100,2013-07-30 21:02:00,
2013-07-30 17:07:00,77.5,66.0,30.09,West,270,3.0,6.0,69,0.00,,,0.00,Rainwise IP-100,2013-07-30 21:07:00,
2013-07-30 17:11:00,77.9,67.0,30.09,SW,225,0.0,3.0,70,0.00,,,0.00,Rainwise IP-100,2013-07-30 21:11:00,
2013-07-30 17:16:00,78.1,67.0,30.09,West,270,4.0,7.0,70,0.00,,,0.00,Rainwise IP-100,2013-07-30 21:16:00,
2013-07-30 17:21:00,78.0,67.0,30.09,WNW,292,4.0,7.0,70,0.00,,,0.00,Rainwise IP-100,2013-07-30 21:21:00,
2013-07-30 17:22:00,77.9,67.0,30.09,WNW,292,7.0,7.0,70,0.00,,,0.00,Rainwise IP-100,2013-07-30 21:22:00,
2013-07-30 17:27:00,77.8,67.0,30.09,West,270,3.0,7.0,70,0.00,,,0.00,Rainwise IP-100,2013-07-30 21:27:00,
2013-07-30 17:32:00,77.5,67.0,30.09,WNW,292,3.0,7.0,70,0.00,,,0.00,Rainwise IP-100,2013-07-30 21:32:00,
2013-07-30 17:37:00,77.3,67.0,30.09,SW,225,2.0,8.0,70,0.00,,,0.00,Rainwise IP-100,2013-07-30 21:37:00,
2013-07-30 17:42:00,77.2,67.0,30.09,WNW,292,5.0,9.0,71,0.00,,,0.00,Rainwise IP-100,2013-07-30 21:42:00,
2013-07-30 17:47:00,76.6,66.0,30.09,South,180,0.0,8.0,71,0.00,,,0.00,Rainwise IP-100,2013-07-30 21:47:00,
2013-07-30 17:52:00,76.6,66.0,30.09,NNE,22,0.0,5.0,72,0.00,,,0.00,Rainwise IP-100,2013-07-30 21:52:00,
2013-07-30 17:57:00,76.7,67.0,30.10,WSW,247,3.0,8.0,72,0.00,,,0.00,Rainwise IP-100,2013-07-30 21:57:00,
2013-07-30 18:02:00,76.5,67.0,30.09,WNW,292,5.0,7.0,73,0.00,,,0.00,Rainwise IP-100,2013-07-30 22:02:00,
2013-07-30 18:07:00,76.5,67.0,30.10,WNW,292,3.0,5.0,73,0.00,,,0.00,Rainwise IP-100,2013-07-30 22:07:00,
2013-07-30 18:12:00,76.2,67.0,30.10,WSW,247,4.0,9.0,74,0.00,,,0.00,Rainwise IP-100,2013-07-30 22:12:00,
2013-07-30 18:17:00,75.4,66.0,30.10,WNW,292,0.0,5.0,74,0.00,,,0.00,Rainwise IP-100,2013-07-30 22:17:00,
2013-07-30 18:22:00,74.8,66.0,30.10,SW,225,5.0,6.0,75,0.00,,,0.00,Rainwise IP-100,2013-07-30 22:22:00,
2013-07-30 18:27:00,74.4,66.0,30.10,WSW,247,4.0,7.0,77,0.00,,,0.00,Rainwise IP-100,2013-07-30 22:27:00,
2013-07-30 18:32:00,74.2,67.0,30.10,WNW,292,6.0,7.0,78,0.00,,,0.00,Rainwise IP-100,2013-07-30 22:32:00,
2013-07-30 18:37:00,74.6,67.0,30.10,WSW,247,1.0,6.0,78,0.00,,,0.00,Rainwise IP-100,2013-07-30 22:37:00,
2013-07-30 18:42:00,75.0,68.0,30.10,West,270,6.0,7.0,78,0.00,,,0.00,Rainwise IP-100,2013-07-30 22:42:00,
2013-07-30 18:47:00,75.3,68.0,30.11,WNW,292,4.0,6.0,78,0.00,,,0.00,Rainwise IP-100,2013-07-30 22:47:00,
2013-07-30 18:52:00,75.4,68.0,30.10,West,270,2.0,4.0,78,0.00,,,0.00,Rainwise IP-100,2013-07-30 22:52:00,
2013-07-30 18:57:00,75.0,68.0,30.11,WNW,292,1.0,4.0,78,0.00,,,0.00,Rainwise IP-100,2013-07-30 22:57:00,
2013-07-30 19:02:00,74.4,67.0,30.11,WSW,247,3.0,6.0,79,0.00,,,0.00,Rainwise IP-100,2013-07-30 23:02:00,
2013-07-30 19:07:00,74.1,67.0,30.11,West,270,4.0,6.0,80,0.00,,,0.00,Rainwise IP-100,2013-07-30 23:07:00,
2013-07-30 19:12:00,73.9,68.0,30.11,West,270,1.0,6.0,81,0.00,,,0.00,Rainwise IP-100,2013-07-30 23:12:00,
2013-07-30 19:17:00,73.4,67.0,30.11,WNW,292,2.0,5.0,81,0.00,,,0.00,Rainwise IP-100,2013-07-30 23:17:00,
2013-07-30 19:22:00,72.9,67.0,30.12,WSW,247,1.0,5.0,82,0.00,,,0.00,Rainwise IP-100,2013-07-30 23:22:00,
2013-07-30 19:27:00,72.8,67.0,30.11,WNW,292,0.0,2.0,83,0.00,,,0.00,Rainwise IP-100,2013-07-30 23:27:00,
2013-07-30 19:32:00,72.8,67.0,30.12,West,270,3.0,3.0,84,0.00,,,0.00,Rainwise IP-100,2013-07-30 23:32:00,
2013-07-30 19:37:00,72.7,67.0,30.11,West,270,0.0,4.0,84,0.00,,,0.00,Rainwise IP-100,2013-07-30 23:37:00,
2013-07-30 19:42:00,72.5,67.0,30.12,West,270,2.0,5.0,84,0.00,,,0.00,Rainwise IP-100,2013-07-30 23:42:00,
2013-07-30 19:47:00,72.2,67.0,30.12,WNW,292,5.0,5.0,85,0.00,,,0.00,Rainwise IP-100,2013-07-30 23:47:00,
2013-07-30 19:52:00,72.1,67.0,30.12,WNW,292,3.0,5.0,85,0.00,,,0.00,Rainwise IP-100,2013-07-30 23:52:00,
2013-07-30 19:57:00,72.1,67.0,30.12,West,270,3.0,5.0,86,0.00,,,0.00,Rainwise IP-100,2013-07-30 23:57:00,
2013-07-30 20:02:00,72.2,68.0,30.12,WNW,292,4.0,5.0,86,0.00,,,0.00,Rainwise IP-100,2013-07-31 00:02:00,
2013-07-30 20:07:00,72.4,68.0,30.12,WNW,292,2.0,6.0,86,0.00,,,0.00,Rainwise IP-100,2013-07-31 00:07:00,
2013-07-30 20:12:00,72.5,68.0,30.13,WNW,292,2.0,6.0,86,0.00,,,0.00,Rainwise IP-100,2013-07-31 00:12:00,
2013-07-30 20:17:00,72.5,68.0,30.12,WNW,292,0.0,4.0,85,0.00,,,0.00,Rainwise IP-100,2013-07-31 00:17:00,
2013-07-30 20:22:00,72.5,67.0,30.13,WNW,292,0.0,4.0,84,0.00,,,0.00,Rainwise IP-100,2013-07-31 00:22:00,
2013-07-30 20:27:00,72.4,66.0,30.13,WNW,292,3.0,4.0,83,0.00,,,0.00,Rainwise IP-100,2013-07-31 00:27:00,
2013-07-30 20:32:00,72.2,66.0,30.13,WNW,292,1.0,3.0,83,0.00,,,0.00,Rainwise IP-100,2013-07-31 00:32:00,
2013-07-30 20:37:00,72.0,66.0,30.13,WNW,292,3.0,3.0,83,0.00,,,0.00,Rainwise IP-100,2013-07-31 00:37:00,
2013-07-30 20:42:00,71.8,66.0,30.13,WNW,292,2.0,4.0,83,0.00,,,0.00,Rainwise IP-100,2013-07-31 00:42:00,
2013-07-30 20:47:00,71.6,66.0,30.14,WNW,292,2.0,4.0,83,0.00,,,0.00,Rainwise IP-100,2013-07-31 00:47:00,
2013-07-30 20:52:00,71.4,66.0,30.14,West,270,2.0,2.0,84,0.00,,,0.00,Rainwise IP-100,2013-07-31 00:52:00,
2013-07-30 20:57:00,71.2,66.0,30.13,WSW,247,1.0,4.0,84,0.00,,,0.00,Rainwise IP-100,2013-07-31 00:57:00,
2013-07-30 21:02:00,71.1,66.0,30.14,West,270,0.0,2.0,85,0.00,,,0.00,Rainwise IP-100,2013-07-31 01:02:00,
2013-07-30 21:07:00,70.9,66.0,30.14,West,270,2.0,2.0,85,0.00,,,0.00,Rainwise IP-100,2013-07-31 01:07:00,
2013-07-30 21:12:00,70.8,66.0,30.14,West,270,2.0,2.0,86,0.00,,,0.00,Rainwise IP-100,2013-07-31 01:12:00,
2013-07-30 21:17:00,70.7,66.0,30.14,West,270,0.0,2.0,86,0.00,,,0.00,Rainwise IP-100,2013-07-31 01:17:00,
2013-07-30 21:22:00,70.5,66.0,30.14,West,270,1.0,1.0,87,0.00,,,0.00,Rainwise IP-100,2013-07-31 01:22:00,
2013-07-30 21:27:00,70.4,66.0,30.14,West,270,1.0,2.0,87,0.00,,,0.00,Rainwise IP-100,2013-07-31 01:27:00,
2013-07-30 21:32:00,70.3,66.0,30.14,West,270,2.0,2.0,88,0.00,,,0.00,Rainwise IP-100,2013-07-31 01:32:00,
2013-07-30 21:37:00,70.4,66.0,30.14,West,270,2.0,4.0,88,0.00,,,0.00,Rainwise IP-100,2013-07-31 01:37:00,
2013-07-30 21:42:00,70.4,67.0,30.14,WNW,292,3.0,4.0,89,0.00,,,0.00,Rainwise IP-100,2013-07-31 01:42:00,
2013-07-30 21:47:00,70.5,67.0,30.14,WNW,292,3.0,4.0,89,0.00,,,0.00,Rainwise IP-100,2013-07-31 01:47:00,
2013-07-30 21:52:00,70.7,67.0,30.14,WNW,292,2.0,4.0,89,0.00,,,0.00,Rainwise IP-100,2013-07-31 01:52:00,
2013-07-30 21:57:00,70.7,67.0,30.14,WNW,292,2.0,3.0,89,0.00,,,0.00,Rainwise IP-100,2013-07-31 01:57:00,
2013-07-30 22:02:00,70.7,67.0,30.14,WNW,292,2.0,3.0,89,0.00,,,0.00,Rainwise IP-100,2013-07-31 02:02:00,
2013-07-30 22:07:00,70.7,67.0,30.15,West,270,2.0,4.0,89,0.00,,,0.00,Rainwise IP-100,2013-07-31 02:07:00,
2013-07-30 22:12:00,70.6,67.0,30.14,West,270,1.0,2.0,89,0.00,,,0.00,Rainwise IP-100,2013-07-31 02:12:00,
2013-07-30 22:17:00,70.4,67.0,30.14,West,270,2.0,3.0,89,0.00,,,0.00,Rainwise IP-100,2013-07-31 02:17:00,
2013-07-30 22:22:00,70.3,67.0,30.15,West,270,2.0,3.0,90,0.00,,,0.00,Rainwise IP-100,2013-07-31 02:22:00,
2013-07-30 22:27:00,70.2,67.0,30.15,West,270,2.0,2.0,91,0.00,,,0.00,Rainwise IP-100,2013-07-31 02:27:00,
2013-07-30 22:32:00,69.8,67.0,30.15,West,270,2.0,3.0,92,0.00,,,0.00,Rainwise IP-100,2013-07-31 02:32:00,
2013-07-30 22:37:00,69.5,67.0,30.15,West,270,3.0,3.0,92,0.00,,,0.00,Rainwise IP-100,2013-07-31 02:37:00,
2013-07-30 22:42:00,69.3,67.0,30.15,WNW,292,2.0,4.0,93,0.00,,,0.00,Rainwise IP-100,2013-07-31 02:42:00,
2013-07-30 22:47:00,69.2,67.0,30.15,WNW,292,3.0,3.0,93,0.00,,,0.00,Rainwise IP-100,2013-07-31 02:47:00,
2013-07-30 22:52:00,69.1,66.0,30.15,WNW,292,2.0,3.0,93,0.00,,,0.00,Rainwise IP-100,2013-07-31 02:52:00,
2013-07-30 22:57:00,69.0,66.0,30.14,WNW,292,3.0,4.0,93,0.00,,,0.00,Rainwise IP-100,2013-07-31 02:57:00,
2013-07-30 23:02:00,68.9,66.0,30.14,WNW,292,3.0,4.0,93,0.00,,,0.00,Rainwise IP-100,2013-07-31 03:02:00,
2013-07-30 23:07:00,68.9,66.0,30.14,WNW,292,3.0,3.0,93,0.00,,,0.00,Rainwise IP-100,2013-07-31 03:07:00,
2013-07-30 23:12:00,68.9,66.0,30.14,WNW,292,2.0,2.0,93,0.00,,,0.00,Rainwise IP-100,2013-07-31 03:12:00,
2013-07-30 23:17:00,68.7,66.0,30.14,WNW,292,2.0,2.0,93,0.00,,,0.00,Rainwise IP-100,2013-07-31 03:17:00,
2013-07-30 23:22:00,68.5,66.0,30.15,WNW,292,2.0,2.0,93,0.00,,,0.00,Rainwise IP-100,2013-07-31 03:22:00,
2013-07-30 23:27:00,68.4,66.0,30.15,WNW,292,2.0,2.0,93,0.00,,,0.00,Rainwise IP-100,2013-07-31 03:27:00,
2013-07-30 23:32:00,68.2,66.0,30.14,WNW,292,2.0,2.0,93,0.00,,,0.00,Rainwise IP-100,2013-07-31 03:32:00,
2013-07-30 23:37:00,68.0,66.0,30.14,WNW,292,0.0,2.0,93,0.00,,,0.00,Rainwise IP-100,2013-07-31 03:37:00,
2013-07-30 23:42:00,67.8,65.0,30.14,WNW,292,2.0,3.0,93,0.00,,,0.00,Rainwise IP-100,2013-07-31 03:42:00,
2013-07-30 23:47:00,67.6,65.0,30.14,WNW,292,1.0,3.0,93,0.00,,,0.00,Rainwise IP-100,2013-07-31 03:47:00,
2013-07-30 23:52:00,67.6,66.0,30.14,WNW,292,1.0,2.0,94,0.00,,,0.00,Rainwise IP-100,2013-07-31 03:52:00,
2013-07-30 23:57:00,67.5,66.0,30.14,WNW,292,2.0,2.0,94,0.00,,,0.00,Rainwise IP-100,2013-07-31 03:57:00,